,,PA_Meas_PMT16A,,PR_Meas_QMR101_102,,RH_Meas_QMH101,,SR_Meas_QMS101,,TA_Meas_QMH101,,GenWind,,GenWind,
time,status,PA,status,PR,status,RH,status,SR,status,TA,status,DirAvg,status,SpdAvg,
2016-07-14, 07:47:04,VALID,918.009,VALID,0,INVALID,110.326,VALID,88.639,VALID,19.1178,VALID,27,VALID,0,
2016-07-14, 07:48:04,VALID,918,VALID,0,INVALID,110.341,VALID,91.8622,VALID,19.1373,VALID,27,VALID,0,
2016-07-14, 07:49:04,VALID,918.026,VALID,0,INVALID,110.326,VALID,92.9366,VALID,19.1583,VALID,27,VALID,0,
2016-07-14, 07:50:04,VALID,918.019,VALID,0,INVALID,110.326,VALID,93.5812,VALID,19.1763,VALID,27,VALID,0,
2016-07-14, 07:51:04,VALID,918.004,VALID,0,INVALID,110.265,VALID,95.4077,VALID,19.2543,VALID,27,VALID,0,
2016-07-14, 07:52:04,VALID,918.043,VALID,0,INVALID,110.311,VALID,98.8459,VALID,19.2753,VALID,27,VALID,0,
2016-07-14, 07:53:04,VALID,918.021,VALID,0,INVALID,110.227,VALID,103.681,VALID,19.3533,VALID,28,VALID,0,
2016-07-14, 07:54:04,VALID,918.059,VALID,0,INVALID,110.387,VALID,110.664,VALID,19.2543,VALID,60,VALID,0,
2016-07-14, 07:55:04,VALID,918.055,VALID,0,INVALID,110.44,VALID,119.367,VALID,19.2348,VALID,60,VALID,0,
2016-07-14, 07:56:04,VALID,918.044,VALID,0,INVALID,110.41,VALID,125.384,VALID,19.2948,VALID,60,VALID,0,
2016-07-14, 07:57:04,VALID,918.018,VALID,0,INVALID,110.395,VALID,130.111,VALID,19.3128,VALID,60,VALID,0,
2016-07-14, 07:58:04,VALID,918.034,VALID,0,INVALID,110.41,VALID,134.409,VALID,19.2933,VALID,60,VALID,0,
2016-07-14, 07:59:04,VALID,918.047,VALID,0,INVALID,110.379,VALID,138.707,VALID,19.3728,VALID,60,VALID,0,
2016-07-14, 08:00:04,VALID,918.013,VALID,0,INVALID,110.379,VALID,142.252,VALID,19.4508,VALID,60,VALID,0,
2016-07-14, 08:01:04,VALID,918.048,VALID,0,INVALID,110.364,VALID,145.046,VALID,19.4493,VALID,33,VALID,0,
2016-07-14, 08:02:04,VALID,918.004,VALID,0,INVALID,110.349,VALID,147.087,VALID,19.4883,VALID,33,VALID,0,
2016-07-14, 08:03:04,VALID,917.998,VALID,0,INVALID,110.418,VALID,149.558,VALID,19.5078,VALID,33,VALID,0,
2016-07-14, 08:04:04,VALID,917.993,VALID,0,INVALID,110.433,VALID,151.814,VALID,19.5468,VALID,34,VALID,0,
2016-07-14, 08:05:04,VALID,917.985,VALID,0,INVALID,110.433,VALID,153.319,VALID,19.6263,VALID,56,VALID,0,
2016-07-14, 08:06:04,VALID,918.018,VALID,0,INVALID,110.532,VALID,157.724,VALID,19.5663,VALID,57,VALID,0,
2016-07-14, 08:07:04,VALID,918.004,VALID,0,INVALID,110.509,VALID,165.352,VALID,19.6248,VALID,52,VALID,0,
2016-07-14, 08:08:04,VALID,917.975,VALID,0,INVALID,110.715,VALID,173.947,VALID,19.5663,VALID,51,VALID,0,
2016-07-14, 08:09:04,VALID,917.999,VALID,0,INVALID,110.791,VALID,182.865,VALID,19.5663,VALID,51,VALID,0,
2016-07-14, 08:10:04,VALID,917.983,VALID,0,INVALID,110.722,VALID,202.097,VALID,19.6443,VALID,51,VALID,0,
2016-07-14, 08:11:04,VALID,917.973,VALID,0,INVALID,110.555,VALID,198.336,VALID,19.8003,VALID,51,VALID,0,
2016-07-14, 08:12:04,VALID,917.939,VALID,0,INVALID,110.479,VALID,214.023,VALID,19.9368,VALID,51,VALID,0,
2016-07-14, 08:13:04,VALID,917.919,VALID,0,INVALID,110.494,VALID,190.278,VALID,19.9758,VALID,115,VALID,0,
2016-07-14, 08:14:04,VALID,917.919,VALID,0,INVALID,110.654,VALID,191.138,VALID,19.9563,VALID,143,VALID,0,
2016-07-14, 08:15:04,VALID,917.857,VALID,0,INVALID,110.791,VALID,205.857,VALID,19.9563,VALID,148,VALID,0,
2016-07-14, 08:16:04,VALID,917.875,VALID,0,INVALID,110.959,VALID,254.85,VALID,19.9563,VALID,165,VALID,0,
2016-07-14, 08:17:04,VALID,917.842,VALID,0,INVALID,110.936,VALID,270.107,VALID,20.0148,VALID,165,VALID,0,
2016-07-14, 08:18:04,VALID,917.818,VALID,0,INVALID,111.027,VALID,299.116,VALID,20.0538,VALID,170,VALID,0,
2016-07-14, 08:19:04,VALID,917.803,VALID,0,INVALID,111.043,VALID,320.175,VALID,20.1303,VALID,172,VALID,0,
2016-07-14, 08:20:04,VALID,917.772,VALID,0,INVALID,111.142,VALID,317.703,VALID,20.1693,VALID,172,VALID,0,
2016-07-14, 08:21:04,VALID,917.78,VALID,0,INVALID,111.127,VALID,336.076,VALID,20.3269,VALID,97,VALID,0,
2016-07-14, 08:22:04,VALID,917.776,VALID,0,INVALID,111.233,VALID,314.695,VALID,20.4049,VALID,88,VALID,0,
2016-07-14, 08:23:04,VALID,917.778,VALID,0,INVALID,111.325,VALID,327.158,VALID,20.5219,VALID,104,VALID,0,
2016-07-14, 08:24:04,VALID,917.736,VALID,0,INVALID,111.691,VALID,335.109,VALID,20.4813,VALID,141,VALID,0,
2016-07-14, 08:25:04,VALID,917.749,VALID,0,INVALID,111.721,VALID,331.886,VALID,20.6374,VALID,66,VALID,0,
2016-07-14, 08:26:04,VALID,917.763,VALID,0,INVALID,112.034,VALID,316.307,VALID,20.7349,VALID,44,VALID,0,
2016-07-14, 08:27:04,VALID,917.766,VALID,0,INVALID,112.552,VALID,314.265,VALID,20.7739,VALID,44,VALID,0,
2016-07-14, 08:28:04,VALID,917.783,VALID,0,INVALID,112.949,VALID,308.141,VALID,20.8129,VALID,48,VALID,0,
2016-07-14, 08:29:04,VALID,917.77,VALID,0,INVALID,113.177,VALID,308.356,VALID,20.891,VALID,44,VALID,0,
2016-07-14, 08:30:04,VALID,917.762,VALID,0,INVALID,114.191,VALID,300.191,VALID,20.873,VALID,39,VALID,0,
2016-07-14, 08:31:04,VALID,917.782,VALID,0,INVALID,114.893,VALID,308.249,VALID,20.834,VALID,42,VALID,0,
2016-07-14, 08:32:04,VALID,917.753,VALID,0,INVALID,115.114,VALID,309.431,VALID,20.9511,VALID,41,VALID,0,
2016-07-14, 08:33:04,VALID,917.789,VALID,0,INVALID,115.19,VALID,320.712,VALID,21.0665,VALID,32,VALID,0,
2016-07-14, 08:34:04,VALID,917.756,VALID,0,INVALID,115.022,VALID,332.101,VALID,21.1071,VALID,66,VALID,0,
2016-07-14, 08:35:04,VALID,917.766,VALID,0,INVALID,112.758,VALID,321.356,VALID,21.1055,VALID,76,VALID,0,
2016-07-14, 08:36:04,VALID,917.778,VALID,0,INVALID,111.195,VALID,325.117,VALID,21.1055,VALID,86,VALID,0,
2016-07-14, 08:37:04,VALID,917.769,VALID,0,INVALID,111.569,VALID,328.233,VALID,21.1836,VALID,82,VALID,0,
2016-07-14, 08:38:04,VALID,917.785,VALID,0,INVALID,112.949,VALID,331.778,VALID,21.3591,VALID,57,VALID,0,
2016-07-14, 08:39:04,VALID,917.741,VALID,0,INVALID,110.898,VALID,343.274,VALID,21.3786,VALID,32,VALID,0,
2016-07-14, 08:40:04,VALID,917.73,VALID,0,INVALID,110.578,VALID,352.3,VALID,21.4957,VALID,65,VALID,0,
2016-07-14, 08:41:04,VALID,917.712,VALID,0,VALID,104,VALID,350.795,VALID,21.5152,VALID,35,VALID,0,
2016-07-14, 08:42:04,VALID,917.712,VALID,0,VALID,104,VALID,350.795,VALID,21.5754,VALID,67,VALID,0,
2016-07-14, 08:43:04,VALID,917.7,VALID,0,VALID,104,VALID,358.316,VALID,21.6323,VALID,32,VALID,0,
2016-07-14, 08:44:04,VALID,917.695,VALID,0,VALID,104,VALID,362.399,VALID,21.7688,VALID,31,VALID,0,
2016-07-14, 08:45:04,VALID,917.693,VALID,0,VALID,104,VALID,365.73,VALID,21.8664,VALID,12,VALID,0,
2016-07-14, 08:46:04,VALID,917.701,VALID,0,VALID,92.0527,VALID,361.862,VALID,21.8664,VALID,8,VALID,0,
2016-07-14, 08:47:04,VALID,917.691,VALID,0,VALID,103.45,VALID,366.697,VALID,21.9054,VALID,8,VALID,0,
2016-07-14, 08:48:04,VALID,917.702,VALID,0,VALID,104,VALID,369.598,VALID,21.9835,VALID,7,VALID,0,
2016-07-14, 08:49:04,VALID,917.727,VALID,0,VALID,103.16,VALID,374.218,VALID,22.0615,VALID,51,VALID,0,
2016-07-14, 08:50:04,VALID,917.71,VALID,0,VALID,92.7693,VALID,384.854,VALID,22.042,VALID,41,VALID,0,
2016-07-14, 08:51:04,VALID,917.755,VALID,0,VALID,88.7137,VALID,387.433,VALID,22.0225,VALID,25,VALID,0,
2016-07-14, 08:52:04,VALID,917.752,VALID,0,VALID,89.1025,VALID,402.152,VALID,22.0225,VALID,86,VALID,0,
2016-07-14, 08:53:04,VALID,917.74,VALID,0,VALID,92.6321,VALID,393.879,VALID,22.0615,VALID,68,VALID,0,
2016-07-14, 08:54:04,VALID,917.723,VALID,0,VALID,103.137,VALID,405.805,VALID,22.1396,VALID,26,VALID,0,
2016-07-14, 08:55:04,VALID,917.727,VALID,0,VALID,104,VALID,401.078,VALID,22.3135,VALID,23,VALID,0,
2016-07-14, 08:56:04,VALID,917.751,VALID,0,VALID,87.3415,VALID,400.755,VALID,22.4128,VALID,319,VALID,0,
2016-07-14, 08:57:04,VALID,917.741,VALID,0,VALID,86.3733,VALID,402.045,VALID,22.2354,VALID,319,VALID,0,
2016-07-14, 08:58:04,VALID,917.74,VALID,0,VALID,103.709,VALID,404.623,VALID,22.1769,VALID,350,VALID,0,
2016-07-14, 08:59:04,VALID,917.752,VALID,0,VALID,104,VALID,410.318,VALID,22.3135,VALID,10,VALID,0,
2016-07-14, 09:00:04,VALID,917.741,VALID,0,VALID,97.6407,VALID,418.806,VALID,22.4891,VALID,343,VALID,0,
2016-07-14, 09:01:04,VALID,917.719,VALID,0,VALID,83.8881,VALID,413.541,VALID,22.5867,VALID,4,VALID,0.619141,
2016-07-14, 09:02:04,VALID,917.746,VALID,0,VALID,94.7133,VALID,423.318,VALID,22.6843,VALID,19,VALID,0.00976563,
2016-07-14, 09:03:04,VALID,917.755,VALID,0,VALID,89.3693,VALID,408.276,VALID,22.8014,VALID,346,VALID,0,
2016-07-14, 09:04:04,VALID,917.766,VALID,0,VALID,82.2643,VALID,420.417,VALID,22.8209,INVALID,360,VALID,0,
2016-07-14, 09:05:04,VALID,917.759,VALID,0,VALID,85.306,VALID,421.814,VALID,22.977,VALID,341,VALID,0,
2016-07-14, 09:06:04,VALID,917.744,VALID,0,VALID,83.4535,VALID,422.566,VALID,23.1136,VALID,321,VALID,0,
2016-07-14, 09:07:04,VALID,917.767,VALID,0,VALID,83.2706,VALID,424.822,VALID,23.0941,VALID,316,VALID,0,
2016-07-14, 09:08:04,VALID,917.738,VALID,0,VALID,85.2755,VALID,431.591,VALID,23.0356,VALID,312,VALID,0,
2016-07-14, 09:09:04,VALID,917.758,VALID,0,VALID,85.6872,VALID,436.104,VALID,23.1136,VALID,322,VALID,0,
2016-07-14, 09:10:04,VALID,917.77,VALID,0,VALID,83.1486,VALID,438.467,VALID,23.1704,VALID,298,VALID,0,
2016-07-14, 09:11:04,VALID,917.759,VALID,0,VALID,80.3889,VALID,432.021,VALID,23.1899,VALID,288,VALID,0,
2016-07-14, 09:12:04,VALID,917.727,VALID,0,VALID,82.2948,VALID,435.674,VALID,23.0924,VALID,291,VALID,0,
2016-07-14, 09:13:04,VALID,917.71,VALID,0,VALID,82.4777,VALID,434.385,VALID,23.1527,VALID,337,VALID,0,
2016-07-14, 09:14:04,VALID,917.724,VALID,0,VALID,78.6127,VALID,444.591,VALID,23.2112,VALID,280,VALID,0,
2016-07-14, 09:15:04,VALID,917.717,VALID,0,VALID,78.8185,VALID,435.674,VALID,23.1704,VALID,288,VALID,0,
2016-07-14, 09:16:04,VALID,917.719,VALID,0,VALID,79.2759,VALID,433.74,VALID,23.2502,VALID,255,VALID,0,
2016-07-14, 09:17:04,VALID,917.734,VALID,0,VALID,76.783,VALID,451.468,VALID,23.2307,VALID,288,VALID,0,
2016-07-14, 09:18:04,VALID,917.696,VALID,0,VALID,77.8275,VALID,453.294,VALID,23.0941,VALID,274,VALID,0,
2016-07-14, 09:19:04,VALID,917.706,VALID,0,VALID,79.9925,VALID,455.658,VALID,23.0338,VALID,298,VALID,0,
2016-07-14, 09:20:04,VALID,917.735,VALID,0,VALID,78.8642,VALID,461.997,VALID,23.0551,VALID,285,VALID,0,
2016-07-14, 09:21:04,VALID,917.716,VALID,0,VALID,79.7333,VALID,461.03,VALID,23.0533,VALID,313,VALID,0,
2016-07-14, 09:22:04,VALID,917.726,VALID,0,VALID,77.8198,VALID,474.997,VALID,23.0338,VALID,278,VALID,0,
2016-07-14, 09:23:04,VALID,917.722,VALID,0,VALID,77.9723,VALID,494.552,VALID,22.8387,VALID,306,VALID,0,
2016-07-14, 09:24:04,VALID,917.713,VALID,0,VALID,80.4118,VALID,497.56,VALID,22.7411,VALID,354,VALID,0,
2016-07-14, 09:25:04,VALID,917.716,VALID,0,VALID,80.8616,VALID,494.122,VALID,22.8191,VALID,258,VALID,0,
2016-07-14, 09:26:04,VALID,917.695,VALID,0,VALID,85.2069,VALID,504.544,VALID,22.9167,VALID,11,VALID,0,
2016-07-14, 09:27:04,VALID,917.739,VALID,0,VALID,81.0445,VALID,490.147,VALID,23.0728,VALID,332,VALID,0,
2016-07-14, 09:28:04,VALID,917.736,VALID,0,VALID,77.9647,VALID,523.131,VALID,23.1704,VALID,314,VALID,0,
2016-07-14, 09:29:04,VALID,917.712,VALID,0,VALID,79.1997,VALID,523.023,VALID,23.268,VALID,35,VALID,0.111328,
2016-07-14, 09:30:04,VALID,917.722,VALID,0,VALID,79.6647,VALID,520.982,VALID,23.4827,VALID,15,VALID,0,
2016-07-14, 09:31:04,VALID,917.726,VALID,0,VALID,78.1553,VALID,512.602,VALID,23.6974,VALID,286,VALID,0,
2016-07-14, 09:32:04,VALID,917.76,VALID,0,VALID,77.8732,VALID,226.593,VALID,23.834,VALID,317,VALID,0.00273437,
2016-07-14, 09:33:04,VALID,917.765,VALID,0,VALID,77.8046,VALID,259.255,VALID,23.6779,VALID,354,VALID,0.968359,
2016-07-14, 09:34:04,VALID,917.727,VALID,0,VALID,77.088,VALID,390.119,VALID,23.5412,VALID,240,VALID,0,
2016-07-14, 09:35:04,VALID,917.759,VALID,0,VALID,77.7665,VALID,355.415,VALID,23.5004,VALID,273,VALID,0,
2016-07-14, 09:36:04,VALID,917.776,VALID,0,VALID,79.2149,VALID,522.916,VALID,23.5217,VALID,27,VALID,0,
2016-07-14, 09:37:04,VALID,917.767,VALID,0,VALID,80.6634,VALID,556.76,VALID,23.5395,VALID,5,VALID,0.889063,
2016-07-14, 09:38:04,VALID,917.765,VALID,0,VALID,78.5517,VALID,544.512,VALID,23.5803,VALID,312,VALID,1.19336,
2016-07-14, 09:39:04,VALID,917.781,VALID,0,VALID,78.4145,VALID,549.991,VALID,23.5395,VALID,13,VALID,2.34023,
2016-07-14, 09:40:04,VALID,917.78,VALID,0,VALID,79.7562,VALID,586.736,VALID,23.598,VALID,39,VALID,0,
2016-07-14, 09:41:04,VALID,917.74,VALID,0,VALID,76.7221,VALID,629.175,VALID,23.6974,VALID,313,VALID,0.000390625,
2016-07-14, 09:42:04,VALID,917.819,VALID,0,VALID,77.21,VALID,237.23,VALID,23.5998,VALID,341,VALID,0.973047,
2016-07-14, 09:43:04,VALID,917.786,VALID,0,VALID,78.8033,VALID,558.372,VALID,23.5608,VALID,38,VALID,0.000390625,
2016-07-14, 09:44:04,VALID,917.776,VALID,0,VALID,78.5364,VALID,613.059,VALID,23.5199,VALID,19,VALID,0.161719,
2016-07-14, 09:45:04,VALID,917.784,VALID,0,VALID,76.4781,VALID,641.101,VALID,23.5785,VALID,324,VALID,0,
2016-07-14, 09:46:04,VALID,917.733,VALID,0,VALID,78.2925,VALID,668.177,VALID,23.559,VALID,6,VALID,0.608203,
2016-07-14, 09:47:04,VALID,917.73,VALID,0,VALID,80.5109,VALID,679.888,VALID,23.6584,VALID,28,VALID,1.28008,
2016-07-14, 09:48:04,VALID,917.698,VALID,0,VALID,80.9302,VALID,673.226,VALID,23.8554,VALID,15,VALID,0.331641,
2016-07-14, 09:49:04,VALID,917.709,VALID,0,VALID,79.6418,VALID,682.036,VALID,24.0878,VALID,21,VALID,0.401563,
2016-07-14, 09:50:04,VALID,917.695,VALID,0,VALID,79.2073,VALID,706.963,VALID,24.2421,VALID,20,VALID,0.501562,
2016-07-14, 09:51:04,VALID,917.609,VALID,0,VALID,76.1122,VALID,590.174,VALID,24.4002,VALID,16,VALID,1.23984,
2016-07-14, 09:52:04,VALID,917.656,VALID,0,VALID,77.1871,VALID,616.068,VALID,24.3026,VALID,13,VALID,0.00195313,
2016-07-14, 09:53:04,VALID,917.623,VALID,0,VALID,78.018,VALID,337.15,VALID,24.3007,VALID,35,VALID,0.998047,
2016-07-14, 09:54:04,VALID,917.572,VALID,0,VALID,75.8149,VALID,308.464,VALID,24.2458,VALID,20,VALID,3.73242,
2016-07-14, 09:55:04,VALID,917.661,VALID,0,VALID,77.2557,VALID,666.565,VALID,23.9902,VALID,26,VALID,1.89336,
2016-07-14, 09:56:04,VALID,917.687,VALID,0,VALID,78.8947,VALID,538.065,VALID,24.0878,VALID,4,VALID,0.147266,
2016-07-14, 09:57:04,VALID,917.682,VALID,0,VALID,76.3561,VALID,412.467,VALID,24.1854,VALID,6,VALID,0.885156,
2016-07-14, 09:58:04,VALID,917.636,VALID,0,VALID,76.9431,VALID,470.27,VALID,24.244,VALID,18,VALID,0.358594,
2016-07-14, 09:59:04,VALID,917.661,VALID,0,VALID,78.2315,VALID,492.51,VALID,24.2635,VALID,12,VALID,0,
2016-07-14, 10:00:04,VALID,917.639,VALID,0,VALID,78.5288,VALID,318.563,VALID,24.1836,VALID,26,VALID,2.43438,
2016-07-14, 10:01:04,VALID,917.613,VALID,0,VALID,76.7983,VALID,303.951,VALID,23.8926,VALID,6,VALID,2.12734,
2016-07-14, 10:02:04,VALID,917.593,VALID,0,VALID,78.4297,VALID,305.563,VALID,23.6388,VALID,1,VALID,2.08984,
2016-07-14, 10:03:04,VALID,917.654,VALID,0,VALID,80.1831,VALID,295.248,VALID,23.4028,VALID,15,VALID,1.4457,
2016-07-14, 10:04:04,VALID,917.653,VALID,0,VALID,81.0217,VALID,286.116,VALID,23.2857,VALID,357,VALID,1.2375,
2016-07-14, 10:05:04,VALID,917.699,VALID,0,VALID,80.732,VALID,281.711,VALID,23.1687,VALID,320,VALID,0.251172,
2016-07-14, 10:06:04,VALID,917.71,VALID,0,VALID,83.1486,VALID,295.893,VALID,23.1119,VALID,17,VALID,1.11875,
2016-07-14, 10:07:04,VALID,917.633,VALID,0,VALID,81.4791,VALID,342.308,VALID,23.0143,VALID,28,VALID,1.9207,
2016-07-14, 10:08:04,VALID,917.611,VALID,0,VALID,83.2477,VALID,336.506,VALID,23.0143,VALID,33,VALID,1.33125,
2016-07-14, 10:09:04,VALID,917.659,VALID,0,VALID,84.4293,VALID,333.068,VALID,23.1119,VALID,22,VALID,0.863281,
2016-07-14, 10:10:04,VALID,917.62,VALID,0,VALID,80.0916,VALID,336.076,VALID,23.229,VALID,337,VALID,0.721875,
2016-07-14, 10:11:04,VALID,917.639,VALID,0,VALID,80.2212,VALID,272.148,VALID,23.229,VALID,340,VALID,0.825391,
2016-07-14, 10:12:04,VALID,917.694,VALID,0,VALID,82.9046,VALID,235.081,VALID,23.0924,VALID,2,VALID,1.11211,
2016-07-14, 10:13:04,VALID,917.685,VALID,0,VALID,82.2795,VALID,219.825,VALID,23.0143,VALID,337,VALID,0.382813,
2016-07-14, 10:14:04,VALID,917.671,VALID,0,VALID,97.6483,VALID,227.345,VALID,23.0321,VALID,20,VALID,0.160156,
2016-07-14, 10:15:04,VALID,917.689,VALID,0,VALID,86.3657,VALID,237.66,VALID,23.0533,VALID,38,VALID,1.08789,
2016-07-14, 10:16:04,VALID,917.686,VALID,0,VALID,88.8052,VALID,224.767,VALID,23.1119,VALID,22,VALID,0.00117188,
2016-07-14, 10:17:04,VALID,917.695,VALID,0,VALID,85.7634,VALID,204.461,VALID,23.0303,VALID,8,VALID,0.117969,
2016-07-14, 10:18:04,VALID,917.691,VALID,0,VALID,85.0697,VALID,207.899,VALID,23.0321,VALID,17,VALID,0.00351562,
2016-07-14, 10:19:04,VALID,917.688,VALID,0,VALID,84.4141,VALID,226.916,VALID,23.0125,VALID,19,VALID,1.7707,
2016-07-14, 10:20:04,VALID,917.757,VALID,0,VALID,86.015,VALID,247.437,VALID,23.0321,VALID,1,VALID,0,
2016-07-14, 10:21:04,VALID,917.689,VALID,0,VALID,84.8715,VALID,259.578,VALID,22.954,VALID,18,VALID,1.8957,
2016-07-14, 10:22:04,VALID,917.732,VALID,0,VALID,83.9719,VALID,246.577,VALID,22.9345,VALID,34,VALID,0.750391,
2016-07-14, 10:23:04,VALID,917.697,VALID,0,VALID,86.0836,VALID,257.536,VALID,22.915,VALID,29,VALID,2.45586,
2016-07-14, 10:24:04,VALID,917.732,VALID,0,VALID,85.7482,VALID,257.751,VALID,22.8174,VALID,27,VALID,1.71133,
2016-07-14, 10:25:04,VALID,917.686,VALID,0,VALID,86.7621,VALID,267.743,VALID,22.7784,VALID,359,VALID,2.05859,
2016-07-14, 10:26:04,VALID,917.675,VALID,0,VALID,87.9742,VALID,281.711,VALID,22.7571,VALID,27,VALID,1.70898,
2016-07-14, 10:27:04,VALID,917.703,VALID,0,VALID,87.2347,VALID,310.612,VALID,22.7784,VALID,20,VALID,2.47813,
2016-07-14, 10:28:04,VALID,917.712,VALID,0,VALID,86.5182,VALID,245.503,VALID,22.6418,VALID,11,VALID,1.87617,
2016-07-14, 10:29:04,VALID,917.719,VALID,0,VALID,92.7312,VALID,258.718,VALID,22.4857,VALID,20,VALID,2.16328,
2016-07-14, 10:30:04,VALID,917.669,VALID,0,VALID,100.103,VALID,268.495,VALID,22.4289,VALID,44,VALID,2.07188,
2016-07-14, 10:31:04,VALID,917.765,VALID,0,VALID,103.877,VALID,259.148,VALID,22.4094,VALID,342,VALID,1.65586,
2016-07-14, 10:32:04,VALID,917.664,VALID,0,VALID,104,VALID,267.099,VALID,22.4272,VALID,36,VALID,1.80898,
2016-07-14, 10:33:04,VALID,917.728,VALID,0,VALID,104,VALID,222.511,VALID,22.4467,VALID,28,VALID,2.12344,
2016-07-14, 10:34:04,VALID,917.76,VALID,0,VALID,102.863,VALID,222.188,VALID,22.4662,VALID,26,VALID,2.02305,
2016-07-14, 10:35:04,VALID,917.796,VALID,0,VALID,103.274,VALID,318.133,VALID,22.4857,VALID,30,VALID,2.31758,
2016-07-14, 10:36:04,VALID,917.794,VALID,0,VALID,100.126,VALID,345.208,VALID,22.4679,VALID,25,VALID,1.57617,
2016-07-14, 10:37:04,VALID,917.816,VALID,0,VALID,104,VALID,409.351,VALID,22.4662,VALID,357,VALID,2.28789,
2016-07-14, 10:38:04,VALID,917.727,VALID,0,VALID,89.4074,VALID,353.481,VALID,22.4662,VALID,39,VALID,3.48555,
2016-07-14, 10:39:04,VALID,917.823,VALID,0,VALID,93.7756,VALID,544.727,VALID,22.5247,VALID,348,VALID,0.753906,
2016-07-14, 10:40:04,VALID,917.745,VALID,0,VALID,86.0836,VALID,539.569,VALID,22.6028,VALID,13,VALID,3.45313,
2016-07-14, 10:41:04,VALID,917.739,VALID,0,VALID,87.3948,VALID,745.964,VALID,22.7021,VALID,9,VALID,2.02187,
2016-07-14, 10:42:04,VALID,917.728,VALID,0,VALID,85.1307,VALID,505.188,VALID,22.7394,VALID,34,VALID,2.70664,
2016-07-14, 10:43:04,VALID,917.763,VALID,0,VALID,84.7953,VALID,309.968,VALID,22.7996,VALID,3,VALID,1.6625,
2016-07-14, 10:44:04,VALID,917.725,VALID,0,VALID,87.3643,VALID,307.282,VALID,22.7606,VALID,15,VALID,2.32227,
2016-07-14, 10:45:04,VALID,917.775,VALID,0,VALID,88.3935,VALID,337.688,VALID,22.7216,VALID,32,VALID,1.67813,
2016-07-14, 10:46:04,VALID,917.749,VALID,0,VALID,86.6249,VALID,424.607,VALID,22.7216,VALID,329,VALID,1.08633,
2016-07-14, 10:47:04,VALID,917.752,VALID,0,VALID,85.7024,VALID,600.811,VALID,22.8387,VALID,32,VALID,1.60938,
2016-07-14, 10:48:04,VALID,917.669,VALID,0,VALID,88.7823,VALID,520.015,VALID,22.9735,VALID,27,VALID,3.13398,
2016-07-14, 10:49:04,VALID,917.629,VALID,0,VALID,84.2769,VALID,515.288,VALID,23.0728,VALID,17,VALID,3.26055,
2016-07-14, 10:50:04,VALID,917.673,VALID,0,VALID,83.423,VALID,343.489,VALID,23.0321,VALID,4,VALID,1.1875,
2016-07-14, 10:51:04,VALID,917.662,VALID,0,VALID,82.7979,VALID,775.403,VALID,23.0125,VALID,24,VALID,2.19102,
2016-07-14, 10:52:04,VALID,917.648,VALID,0,VALID,84.6428,VALID,453.617,VALID,23.0906,VALID,41,VALID,1.4957,
2016-07-14, 10:53:04,VALID,917.675,VALID,0,VALID,81.5934,VALID,696.541,VALID,23.2857,VALID,352,VALID,1.59492,
2016-07-14, 10:54:04,VALID,917.64,VALID,0,VALID,81.6925,VALID,707.715,VALID,23.3443,VALID,6,VALID,3.15313,
2016-07-14, 10:55:04,VALID,917.603,VALID,0,VALID,79.1692,VALID,834.818,VALID,23.3248,VALID,13,VALID,4.24141,
2016-07-14, 10:56:04,VALID,917.613,VALID,0,VALID,79.9086,VALID,992.864,VALID,23.3638,VALID,34,VALID,2.45508,
2016-07-14, 10:57:04,VALID,917.722,VALID,0,VALID,82.5006,VALID,960.094,VALID,23.637,VALID,20,VALID,2.42812,
2016-07-14, 10:58:04,VALID,917.627,VALID,0,VALID,79.5503,VALID,760.146,VALID,23.7737,VALID,32,VALID,1.96563,
2016-07-14, 10:59:04,VALID,917.605,VALID,0,VALID,77.6826,VALID,751.551,VALID,23.9689,VALID,192,VALID,0.591016,
2016-07-14, 11:00:04,VALID,917.633,VALID,0,VALID,79.0929,VALID,791.734,VALID,24.1641,VALID,21,VALID,2.21055,
2016-07-14, 11:01:04,VALID,917.622,VALID,0,VALID,76.5543,VALID,930.011,VALID,24.3593,VALID,43,VALID,2.29688,
2016-07-14, 11:02:04,VALID,917.697,VALID,0,VALID,75.8606,VALID,760.254,VALID,24.4374,VALID,32,VALID,1.75742,
2016-07-14, 11:03:04,VALID,917.587,VALID,0,VALID,74.6942,VALID,542.255,VALID,24.4764,VALID,28,VALID,2.7293,
2016-07-14, 11:04:04,VALID,917.548,VALID,0,VALID,74.4655,VALID,651.308,VALID,24.2208,VALID,18,VALID,2.27695,
2016-07-14, 11:05:04,VALID,917.589,VALID,0,VALID,77.027,VALID,616.82,VALID,24.125,VALID,12,VALID,1.12734,
2016-07-14, 11:06:04,VALID,917.602,VALID,0,VALID,78.0562,VALID,457.914,VALID,24.2031,VALID,360,VALID,0.326953,
2016-07-14, 11:07:04,VALID,917.515,VALID,0,VALID,76.8288,VALID,388.722,VALID,24.2031,VALID,22,VALID,2.84687,
2016-07-14, 11:08:04,VALID,917.671,VALID,0,VALID,78.3077,VALID,360.895,VALID,23.9103,VALID,8,VALID,1.91992,
2016-07-14, 11:09:04,VALID,917.593,VALID,0,VALID,78.5441,VALID,345.853,VALID,23.6566,VALID,26,VALID,1.92109,
2016-07-14, 11:10:04,VALID,917.485,VALID,0,VALID,78.9862,VALID,360.787,VALID,23.5767,VALID,54,VALID,0.461328,
2016-07-14, 11:11:04,VALID,917.579,VALID,0,VALID,81.0979,VALID,351.225,VALID,23.5199,VALID,20,VALID,3.02266,
2016-07-14, 11:12:04,VALID,917.616,VALID,0,VALID,79.619,VALID,372.391,VALID,23.4419,VALID,7,VALID,1.91992,
2016-07-14, 11:13:04,VALID,917.593,VALID,0,VALID,79.9696,VALID,350.151,VALID,23.362,VALID,7,VALID,1.75937,
2016-07-14, 11:14:04,VALID,917.566,VALID,0,VALID,81.4943,VALID,363.581,VALID,23.3053,VALID,35,VALID,2.11445,
2016-07-14, 11:15:04,VALID,917.578,VALID,0,VALID,80.854,VALID,356.275,VALID,23.3443,VALID,15,VALID,0.319141,
2016-07-14, 11:16:04,VALID,917.588,VALID,0,VALID,81.8831,VALID,345.746,VALID,23.4206,VALID,32,VALID,0.837109,
2016-07-14, 11:17:04,VALID,917.58,VALID,0,VALID,81.1894,VALID,336.506,VALID,23.5004,VALID,43,VALID,0.886719,
2016-07-14, 11:18:04,VALID,917.505,VALID,0,VALID,79.8477,VALID,331.563,VALID,23.5199,VALID,27,VALID,0.899609,
2016-07-14, 11:19:04,VALID,917.557,VALID,0,VALID,78.4831,VALID,321.356,VALID,23.5022,VALID,353,VALID,2.31719,
2016-07-14, 11:20:04,VALID,917.498,VALID,0,VALID,79.9773,VALID,316.629,VALID,23.268,VALID,7,VALID,1.22852,
2016-07-14, 11:21:04,VALID,917.477,VALID,0,VALID,80.8158,VALID,327.91,VALID,23.1704,VALID,16,VALID,1.63398,
2016-07-14, 11:22:04,VALID,917.466,VALID,0,VALID,79.5351,VALID,339.621,VALID,23.0533,VALID,36,VALID,2.45508,
2016-07-14, 11:23:04,VALID,917.404,VALID,0,VALID,80.5109,VALID,349.721,VALID,22.9345,VALID,32,VALID,1.80664,
2016-07-14, 11:24:04,VALID,917.459,VALID,0,VALID,81.8831,VALID,360.25,VALID,22.9557,VALID,16,VALID,1.47187,
2016-07-14, 11:25:04,VALID,917.449,VALID,0,VALID,80.9073,VALID,370.35,VALID,23.0321,VALID,19,VALID,1.12695,
2016-07-14, 11:26:04,VALID,917.466,VALID,0,VALID,80.7701,VALID,378.3,VALID,23.1509,VALID,9,VALID,2.36719,
2016-07-14, 11:27:04,VALID,917.431,VALID,0,VALID,79.0624,VALID,383.35,VALID,23.1687,VALID,298,VALID,1.48672,